When you browse on this site, cookies collect data to enhance your experience and personalize the content and advertising you see.
Visit our Privacy Policy to learn more. By continuing to use the site, you agree to this use of cookies and data.
  • Em Portugal
  • Lista de países
  • Para 7 dias
  • Temperatura da água
  • Mapas de satélite
  • Mapa do tempo
  • Widgets de tempo
  • user-avatar
    Iniciar Sessão

    Previsão horária em Uige

    Hoje, 25 Março, Segunda-feira

    Tempo Temperatura Precipitação Vento Pressão Humidade
    00:00 +20°C° 0.7 mm 0 m/s 691 mmHg 97%
    01:00 +20°C° 0 mm 0 m/s 691 mmHg 97%
    02:00 +20°C° 0 mm 0 m/s 690 mmHg 97%
    03:00 +19°C° 0 mm 0 m/s 690 mmHg 97%
    04:00 +19°C° 0 mm 0 m/s 690 mmHg 97%
    05:00 +20°C° 0 mm 0 m/s 690 mmHg 97%
    06:00 +20°C° 0 mm 0 m/s 690 mmHg 96%
    07:00 +23°C° 0 mm 1 m/s 691 mmHg 95%
    08:00 +25°C° 0.1 mm 1 m/s 691 mmHg 84%
    09:00 +28°C° 0.1 mm 1 m/s 692 mmHg 73%
    10:00 +30°C° 0.1 mm 1 m/s 693 mmHg 62%
    11:00 +31°C° 0.7 mm 1 m/s 692 mmHg 62%
    12:00 +31°C° 0.7 mm 1 m/s 692 mmHg 62%
    13:00 +33°C° 0 mm 1 m/s 691 mmHg 57%
    14:00 +31°C° 1.2 mm 1 m/s 691 mmHg 66%
    15:00 +30°C° 1.2 mm 1 m/s 690 mmHg 75%
    16:00 +28°C° 1.2 mm 2 m/s 689 mmHg 84%
    17:00 +27°C° 2 mm 1 m/s 690 mmHg 88%
    18:00 +25°C° 2 mm 1 m/s 690 mmHg 91%
    19:00 +23°C° 2 mm 1 m/s 690 mmHg 95%
    20:00 +23°C° 0.5 mm 1 m/s 690 mmHg 96%
    21:00 +22°C° 0.5 mm 1 m/s 691 mmHg 97%
    22:00 +22°C° 0.5 mm 1 m/s 691 mmHg 98%
    23:00 +22°C° 0 mm 1 m/s 691 mmHg 98%

    Amanhã, 26 Março, Terça-feira

    Tempo Temperatura Precipitação Vento Pressão Humidade
    00:00 +22°C° 0 mm 1 m/s 691 mmHg 98%
    01:00 +22°C° 0 mm 1 m/s 691 mmHg 99%
    02:00 +22°C° 0 mm 1 m/s 691 mmHg 99%
    03:00 +22°C° 0 mm 1 m/s 690 mmHg 99%
    04:00 +22°C° 0 mm 1 m/s 690 mmHg 99%
    05:00 +22°C° 0 mm 1 m/s 691 mmHg 98%
    06:00 +23°C° 0 mm 1 m/s 691 mmHg 98%
    07:00 +23°C° 0 mm 1 m/s 692 mmHg 97%
    08:00 +25°C° 0 mm 1 m/s 692 mmHg 88%
    09:00 +27°C° 0 mm 1 m/s 693 mmHg 79%
    10:00 +29°C° 0 mm 1 m/s 694 mmHg 70%
    11:00 +29°C° 0.9 mm 1 m/s 693 mmHg 72%
    12:00 +29°C° 0.9 mm 1 m/s 692 mmHg 73%
    13:00 +30°C° 0.9 mm 1 m/s 691 mmHg 75%
    14:00 +29°C° 1.4 mm 1 m/s 691 mmHg 79%
    15:00 +28°C° 1.4 mm 1 m/s 690 mmHg 83%
    16:00 +28°C° 1.4 mm 1 m/s 690 mmHg 86%
    17:00 +26°C° 0.6 mm 1 m/s 690 mmHg 90%
    18:00 +25°C° 0.6 mm 1 m/s 691 mmHg 94%
    19:00 +21°C° 0.6 mm 0 m/s 691 mmHg 98%
    20:00 +23°C° 0.5 mm 1 m/s 691 mmHg 98%
    21:00 +23°C° 0.5 mm 1 m/s 692 mmHg 98%
    22:00 +22°C° 0.5 mm 1 m/s 692 mmHg 98%
    23:00 +22°C° 0 mm 1 m/s 692 mmHg 98%

    Depois de amanhã, 27 Março, Quarta-feira

    Tempo Temperatura Precipitação Vento Pressão Humidade
    00:00 +22°C° 0 mm 1 m/s 691 mmHg 98%
    01:00 +22°C° 0 mm 1 m/s 691 mmHg 99%
    02:00 +21°C° 0 mm 1 m/s 691 mmHg 99%
    03:00 +21°C° 0 mm 1 m/s 691 mmHg 99%
    04:00 +21°C° 0 mm 1 m/s 691 mmHg 99%
    05:00 +22°C° 0 mm 1 m/s 691 mmHg 98%
    06:00 +22°C° 0 mm 1 m/s 691 mmHg 97%
    07:00 +22°C° 0 mm 1 m/s 692 mmHg 97%
    08:00 +25°C° 0 mm 1 m/s 692 mmHg 83%
    09:00 +29°C° 0 mm 1 m/s 693 mmHg 70%
    10:00 +30°C° 0 mm 0 m/s 694 mmHg 57%
    11:00 +31°C° 0 mm 0 m/s 693 mmHg 52%
    12:00 +33°C° 0 mm 0 m/s 693 mmHg 47%
    13:00 +34°C° 0 mm 0 m/s 692 mmHg 42%
    14:00 +33°C° 0 mm 0 m/s 691 mmHg 48%
    15:00 +33°C° 0 mm 1 m/s 691 mmHg 54%
    16:00 +31°C° 0 mm 1 m/s 690 mmHg 61%
    17:00 +29°C° 0.4 mm 1 m/s 690 mmHg 68%
    18:00 +28°C° 0.4 mm 1 m/s 690 mmHg 76%
    19:00 +26°C° 0.4 mm 1 m/s 691 mmHg 83%
    20:00 +25°C° 0.5 mm 1 m/s 691 mmHg 86%
    21:00 +25°C° 0.5 mm 1 m/s 692 mmHg 90%
    22:00 +24°C° 0.5 mm 1 m/s 692 mmHg 93%
    23:00 +24°C° 0.7 mm 1 m/s 692 mmHg 94%

    28 Março, Quinta-feira

    Tempo Temperatura Precipitação Vento Pressão Humidade
    00:00 +23°C° 0.7 mm 1 m/s 692 mmHg 94%
    01:00 +23°C° 0.7 mm 1 m/s 692 mmHg 95%
    02:00 +21°C° 0 mm 0 m/s 691 mmHg 95%
    03:00 +21°C° 0 mm 0 m/s 691 mmHg 95%
    04:00 +21°C° 0 mm 0 m/s 691 mmHg 95%
    05:00 +21°C° 0 mm 0 m/s 691 mmHg 95%
    06:00 +21°C° 0 mm 0 m/s 692 mmHg 95%
    07:00 +22°C° 0 mm 0 m/s 692 mmHg 94%
    08:00 +26°C° 0 mm 1 m/s 693 mmHg 84%
    09:00 +28°C° 0 mm 1 m/s 693 mmHg 74%
    10:00 +31°C° 0 mm 1 m/s 694 mmHg 64%
    11:00 +32°C° 0.3 mm 1 m/s 693 mmHg 59%
    12:00 +33°C° 0.3 mm 1 m/s 693 mmHg 55%
    13:00 +35°C° 0.3 mm 1 m/s 692 mmHg 50%
    14:00 +32°C° 2.4 mm 1 m/s 691 mmHg 64%
    15:00 +29°C° 2.4 mm 1 m/s 690 mmHg 78%
    16:00 +27°C° 2.4 mm 1 m/s 689 mmHg 92%
    17:00 +26°C° 0.4 mm 1 m/s 690 mmHg 92%
    18:00 +23°C° 0.4 mm 0 m/s 690 mmHg 93%
    19:00 +22°C° 0.4 mm 0 m/s 691 mmHg 93%
    20:00 +22°C° 0 mm 0 m/s 691 mmHg 93%
    21:00 +22°C° 0 mm 0 m/s 691 mmHg 94%
    22:00 +23°C° 0 mm 1 m/s 692 mmHg 95%
    23:00 +23°C° 0.1 mm 1 m/s 691 mmHg 95%

    29 Março, Sexta-feira

    Tempo Temperatura Precipitação Vento Pressão Humidade
    00:00 +23°C° 0.1 mm 1 m/s 691 mmHg 95%
    01:00 +23°C° 0.1 mm 1 m/s 691 mmHg 95%
    02:00 +23°C° 0.7 mm 1 m/s 691 mmHg 95%
    03:00 +23°C° 0.7 mm 1 m/s 690 mmHg 95%
    04:00 +23°C° 0.7 mm 1 m/s 690 mmHg 95%
    05:00 +23°C° 0.2 mm 1 m/s 691 mmHg 95%
    06:00 +23°C° 0.2 mm 1 m/s 691 mmHg 95%
    07:00 +23°C° 0.2 mm 1 m/s 691 mmHg 95%
    08:00 +25°C° 0 mm 1 m/s 692 mmHg 87%
    09:00 +27°C° 0 mm 2 m/s 692 mmHg 79%
    10:00 +28°C° 0 mm 2 m/s 693 mmHg 71%
    11:00 +30°C° 0.1 mm 2 m/s 692 mmHg 66%
    12:00 +31°C° 0.1 mm 2 m/s 691 mmHg 62%
    13:00 +32°C° 0.1 mm 2 m/s 690 mmHg 57%
    14:00 +31°C° 0.3 mm 1 m/s 690 mmHg 60%
    15:00 +31°C° 0.3 mm 1 m/s 689 mmHg 63%
    16:00 +31°C° 0.3 mm 1 m/s 689 mmHg 66%
    17:00 +29°C° 0.7 mm 1 m/s 689 mmHg 73%
    18:00 +27°C° 0.7 mm 1 m/s 690 mmHg 80%
    19:00 +25°C° 0.7 mm 1 m/s 690 mmHg 87%
    20:00 +24°C° 0 mm 1 m/s 691 mmHg 87%
    21:00 +22°C° 0 mm 0 m/s 691 mmHg 87%
    22:00 +22°C° 0 mm 0 m/s 691 mmHg 87%
    23:00 +21°C° 0.1 mm 0 m/s 691 mmHg 89%

    30 Março, Sábado

    Tempo Temperatura Precipitação Vento Pressão Humidade
    00:00 +21°C° 0.1 mm 0 m/s 691 mmHg 90%
    01:00 +21°C° 0.1 mm 0 m/s 691 mmHg 92%
    02:00 +22°C° 0.4 mm 1 m/s 690 mmHg 93%
    03:00 +22°C° 0.4 mm 1 m/s 690 mmHg 94%
    04:00 +22°C° 0.4 mm 1 m/s 690 mmHg 96%
    05:00 +22°C° 0 mm 1 m/s 690 mmHg 95%
    06:00 +22°C° 0 mm 1 m/s 691 mmHg 94%
    07:00 +23°C° 0 mm 1 m/s 691 mmHg 94%
    08:00 +25°C° 0 mm 1 m/s 692 mmHg 83%
    09:00 +27°C° 0 mm 2 m/s 692 mmHg 72%
    10:00 +30°C° 0 mm 2 m/s 693 mmHg 61%
    11:00 +31°C° 0.1 mm 2 m/s 692 mmHg 57%
    12:00 +32°C° 0.1 mm 2 m/s 691 mmHg 53%
    13:00 +34°C° 0.1 mm 2 m/s 691 mmHg 50%
    14:00 +32°C° 0.1 mm 2 m/s 690 mmHg 53%
    15:00 +31°C° 0.1 mm 2 m/s 690 mmHg 56%
    16:00 +31°C° 0.1 mm 2 m/s 690 mmHg 60%
    17:00 +29°C° 0.2 mm 1 m/s 690 mmHg 68%
    18:00 +27°C° 0.2 mm 1 m/s 690 mmHg 76%
    19:00 +25°C° 0.2 mm 1 m/s 690 mmHg 85%
    20:00 +24°C° 0 mm 1 m/s 691 mmHg 86%
    21:00 +24°C° 0 mm 1 m/s 691 mmHg 87%
    22:00 +23°C° 0 mm 1 m/s 691 mmHg 88%
    23:00 +23°C° 0 mm 1 m/s 691 mmHg 88%
    Mostrar mais